Hourly Weather Roundup
Issued by NWS Central Illinois

Home | Current Version | Previous Version | Text Only | Print | Product List | Glossary On
Versions: 1 2 3 4 5 6 7 8 9 10 11 12 13 14 15 16 17 18 19 20 21 22 23 24 25 26 27 28 29 30 31 32 33 34 35 36 37 38 39 40 41 42 43 44 45 46 47 48 49 50
000
NZUS43 KILX 210810
HWRILX

AREA WEATHER ROUNDUP
NATIONAL WEATHER SERVICE, LINCOLN IL
300 AM CDT TUE MAR 21 2017


CITY           SKY/WX    TMP DP  RH WIND       PRES   REMARKS
BLOOMINGTON    CLEAR     39  36  89 N12       30.11S WCI  32
CHAMPAIGN      PTCLDY    42  38  85 N10       30.09R FOG
DECATUR        CLEAR     42  39  89 N12       30.09R FOG
EFFINGHAM      CLOUDY    49  49  99 N7        30.07R FOG
FLORA          CLEAR     50  47  90 N7        30.03S
GALESBURG      PTCLDY    37  36  94 N6          N/A  WCI  32
JACKSONVILLE   CLEAR     43  40  89 N7        30.11R
LACON          MOCLDY    38  37  96 CALM      30.13S FOG
LAWRENCEVILLE  CLEAR     49  45  86 N10       30.02S
LITCHFIELD     CLEAR     45  44  97 N8        30.08S FOG
$$


CITY           SKY/WX    TMP DP  RH WIND       PRES   REMARKS
LINCOLN        CLEAR     41  40  96 N7        30.11S FOG
MACOMB         PTCLDY    40  38  93 N6        30.16R
MATTOON        CLOUDY    45  45 100 N14       30.06R FOG
MT CARMEL AP   CLEAR     50  44  80 N7        30.01S
OLNEY-NOBLE AP CLEAR     46  46 100 N8        30.03S
PARIS          PTCLDY    44  43  95 N8        30.07S FOG
PEORIA         PTCLDY    43  38  82 N3        30.13S
PONTIAC        CLEAR     37  37  99 CALM      30.13S FOG
RANTOUL        CLEAR     42  39  91 N8        30.10R FOG
SPRINGFIELD    CLEAR     43  40  89 N7        30.11R FOG
TAYLORVILLE    CLEAR     43  41  95 N10       30.10R FOG
$$

...REGIONAL REPORTS...


CITY           SKY/WX    TMP DP  RH WIND       PRES   REMARKS
CHICAGO O`HARE CLOUDY    39  32  76 N6        30.12R WCI  35
KANKAKEE       CLEAR     37  35  90 CALM      30.12S
MOLINE         PTCLDY    41  37  86 CALM      30.14S
MOUNT STERLING CLEAR     42  39  92 N8        30.11S
MOUNT VERNON   CLEAR     51  46  83 N7        30.02R
PITTSFIELD     CLEAR     48  43  83 NE5       30.12R
QUINCY         CLEAR     43  41  93 NE7       30.11R
ROCKFORD       PTCLDY    39  33  79 CALM      30.16S
$$


CITY           SKY/WX    TMP DP  RH WIND       PRES   REMARKS
BURLINGTON     PTCLDY    46  41  82 NE8       30.14R
CEDAR RAPIDS   MOCLDY    39  32  76 N8        30.17R WCI  33
DES MOINES     CLOUDY    48  26  42 N10       30.21R
KIRKSVILLE     CLOUDY    48  32  53 N9        30.13S
OTTUMWA        CLEAR     44  34  67 N10       30.16R
ST LOUIS       PTCLDY    51  45  79 N7        30.08R
$$


CITY           SKY/WX    TMP DP  RH WIND       PRES   REMARKS
TERRE HAUTE    CLOUDY    48  44  86 N10       30.06R
EVANSVILLE     CLEAR     54  45  71 N9        29.98F
INDIANAPOLIS   MOCLDY    47  45  93 N10       30.03F FOG
LAFAYETTE      PTCLDY    39  39 100 CALM      30.09R FOG
MADISON        CLEAR     32  30  92 CALM      30.14S
MILWAUKEE      PTCLDY    39  30  70 W6        30.12S WCI  35
$$






USA.gov is the U.S. government's official web portal to all federal, state and local government web resources and services.